Time,TemperatureF,DewpointF,PressureIn,WindDirection,WindDirectionDegrees,WindSpeedMPH,WindSpeedGustMPH,Humidity,HourlyPrecipIn,Conditions,Clouds,dailyrainin,SoftwareType,DateUTC
2013-01-26 00:00:00,17.6,5.0,30.09,NNE,22,0.0,0.0,57,0.00,,---,0.00,VWS V13.01,2013-01-26 05:00:00,
2013-01-26 00:01:00,17.6,5.0,30.09,NNE,22,0.0,0.0,57,0.00,,---,0.00,VWS V13.01,2013-01-26 05:01:00,
2013-01-26 00:06:00,17.6,5.0,30.09,NNE,22,0.0,0.0,57,0.00,,---,0.00,VWS V13.01,2013-01-26 05:06:00,
2013-01-26 00:11:00,17.4,5.2,30.09,NNE,22,0.0,0.0,58,0.00,,---,0.00,VWS V13.01,2013-01-26 05:11:00,
2013-01-26 00:16:00,17.4,5.2,30.09,NNE,22,0.0,0.0,58,0.00,,---,0.00,VWS V13.01,2013-01-26 05:16:00,
2013-01-26 00:21:00,17.1,4.8,30.09,NNE,22,0.0,0.0,58,0.00,,---,0.00,VWS V13.01,2013-01-26 05:21:00,
2013-01-26 00:26:00,17.1,4.8,30.09,WNW,292,0.0,0.0,58,0.00,,---,0.00,VWS V13.01,2013-01-26 05:26:00,
2013-01-26 00:31:00,16.2,4.4,30.09,WNW,292,0.0,0.0,59,0.00,,---,0.00,VWS V13.01,2013-01-26 05:31:00,
2013-01-26 00:36:00,16.0,4.2,30.09,WNW,292,0.0,0.0,59,0.00,,---,0.00,VWS V13.01,2013-01-26 05:36:00,
2013-01-26 00:41:00,15.6,3.8,30.09,WNW,292,0.0,0.0,59,0.00,,---,0.00,VWS V13.01,2013-01-26 05:41:00,
2013-01-26 00:46:00,15.4,3.7,30.09,WNW,292,0.0,0.0,59,0.00,,---,0.00,VWS V13.01,2013-01-26 05:46:00,
2013-01-26 00:51:00,15.3,3.5,30.09,WNW,292,0.0,0.0,59,0.00,,---,0.00,VWS V13.01,2013-01-26 05:51:00,
2013-01-26 00:56:00,15.1,3.3,30.09,WNW,292,0.0,0.0,59,0.00,,---,0.00,VWS V13.01,2013-01-26 05:56:00,
2013-01-26 01:01:00,14.9,3.2,30.09,WNW,292,0.0,0.0,59,0.00,,---,0.00,VWS V13.01,2013-01-26 06:01:00,
2013-01-26 01:06:00,14.5,2.8,30.09,WNW,292,0.0,0.0,59,0.00,,---,0.00,VWS V13.01,2013-01-26 06:06:00,
2013-01-26 01:11:00,14.4,2.7,30.09,WNW,292,0.0,0.0,59,0.00,,---,0.00,VWS V13.01,2013-01-26 06:11:00,
2013-01-26 01:16:00,14.2,2.9,30.09,WNW,292,0.0,0.0,60,0.00,,---,0.00,VWS V13.01,2013-01-26 06:16:00,
2013-01-26 01:21:00,14.0,2.7,30.09,WNW,292,0.0,0.0,60,0.00,,---,0.00,VWS V13.01,2013-01-26 06:21:00,
2013-01-26 01:26:00,13.6,2.3,30.09,WNW,292,0.0,0.0,60,0.00,,---,0.00,VWS V13.01,2013-01-26 06:26:00,
2013-01-26 01:31:00,13.6,2.3,30.09,WNW,292,0.0,0.0,60,0.00,,---,0.00,VWS V13.01,2013-01-26 06:31:00,
2013-01-26 01:36:00,13.5,2.2,30.09,WNW,292,0.0,0.0,60,0.00,,---,0.00,VWS V13.01,2013-01-26 06:36:00,
2013-01-26 01:41:00,13.3,2.0,30.09,WNW,292,0.0,0.0,60,0.00,,---,0.00,VWS V13.01,2013-01-26 06:41:00,
2013-01-26 01:46:00,13.1,1.8,30.09,WNW,292,0.0,0.0,60,0.00,,---,0.00,VWS V13.01,2013-01-26 06:46:00,
2013-01-26 01:51:00,12.9,1.7,30.09,WNW,292,0.0,0.0,60,0.00,,---,0.00,VWS V13.01,2013-01-26 06:51:00,
2013-01-26 01:56:00,12.7,1.5,30.09,WNW,292,0.0,0.0,60,0.00,,---,0.00,VWS V13.01,2013-01-26 06:56:00,
2013-01-26 02:01:00,12.7,1.5,30.09,WNW,292,0.0,0.0,60,0.00,,---,0.00,VWS V13.01,2013-01-26 07:01:00,
2013-01-26 02:06:00,12.6,1.3,30.09,WNW,292,0.0,0.0,60,0.00,,---,0.00,VWS V13.01,2013-01-26 07:06:00,
2013-01-26 02:11:00,12.6,1.3,30.09,WNW,292,0.0,0.0,60,0.00,,---,0.00,VWS V13.01,2013-01-26 07:11:00,
2013-01-26 02:16:00,12.4,1.1,30.09,WNW,292,0.0,0.0,60,0.00,,---,0.00,VWS V13.01,2013-01-26 07:16:00,
2013-01-26 02:21:00,12.4,1.1,30.06,WNW,292,0.0,0.0,60,0.00,,---,0.00,VWS V13.01,2013-01-26 07:21:00,
2013-01-26 02:26:00,12.4,1.1,30.06,WNW,292,0.0,0.0,60,0.00,,---,0.00,VWS V13.01,2013-01-26 07:26:00,
2013-01-26 02:31:00,12.4,1.1,30.06,WNW,292,0.0,0.0,60,0.00,,---,0.00,VWS V13.01,2013-01-26 07:31:00,
2013-01-26 02:36:00,12.4,1.1,30.06,WNW,292,0.0,0.0,60,0.00,,---,0.00,VWS V13.01,2013-01-26 07:36:00,
2013-01-26 02:41:00,12.4,1.1,30.06,WNW,292,0.0,0.0,60,0.00,,---,0.00,VWS V13.01,2013-01-26 07:41:00,
2013-01-26 02:46:00,12.4,1.1,30.06,NW,315,0.0,0.0,60,0.00,,---,0.00,VWS V13.01,2013-01-26 07:46:00,
2013-01-26 02:51:00,12.4,1.1,30.06,NW,315,0.0,0.0,60,0.00,,---,0.00,VWS V13.01,2013-01-26 07:51:00,
2013-01-26 02:56:00,12.2,1.0,30.06,NW,315,0.0,0.0,60,0.00,,---,0.00,VWS V13.01,2013-01-26 07:56:00,
2013-01-26 03:01:00,12.2,1.0,30.06,NW,315,0.0,0.0,60,0.00,,---,0.00,VWS V13.01,2013-01-26 08:01:00,
2013-01-26 03:06:00,12.0,0.8,30.06,NW,315,0.0,0.0,60,0.00,,---,0.00,VWS V13.01,2013-01-26 08:06:00,
2013-01-26 03:11:00,12.0,0.8,30.06,NW,315,0.0,0.0,60,0.00,,---,0.00,VWS V13.01,2013-01-26 08:11:00,
2013-01-26 03:16:00,11.8,0.6,30.06,NW,315,0.0,0.0,60,0.00,,---,0.00,VWS V13.01,2013-01-26 08:16:00,
2013-01-26 03:21:00,11.8,0.6,30.06,NW,315,0.0,0.0,60,0.00,,---,0.00,VWS V13.01,2013-01-26 08:21:00,
2013-01-26 03:26:00,11.8,0.6,30.06,NNE,22,0.0,0.0,60,0.00,,---,0.00,VWS V13.01,2013-01-26 08:26:00,
2013-01-26 03:31:00,11.8,0.6,30.06,WNW,292,0.0,0.0,60,0.00,,---,0.00,VWS V13.01,2013-01-26 08:31:00,
2013-01-26 03:36:00,11.7,0.5,30.06,WNW,292,0.0,0.0,60,0.00,,---,0.00,VWS V13.01,2013-01-26 08:36:00,
2013-01-26 03:41:00,11.7,0.5,30.06,WNW,292,0.0,0.0,60,0.00,,---,0.00,VWS V13.01,2013-01-26 08:41:00,
2013-01-26 03:46:00,11.7,0.5,30.06,WNW,292,0.0,0.0,60,0.00,,---,0.00,VWS V13.01,2013-01-26 08:46:00,
2013-01-26 03:51:00,11.7,0.5,30.06,WNW,292,3.1,4.0,60,0.00,,---,0.00,VWS V13.01,2013-01-26 08:51:00,
2013-01-26 03:56:00,11.5,0.3,30.06,WNW,292,1.8,2.7,60,0.00,,---,0.00,VWS V13.01,2013-01-26 08:56:00,
2013-01-26 04:01:00,11.3,0.1,30.06,WNW,292,0.0,0.0,60,0.00,,---,0.00,VWS V13.01,2013-01-26 09:01:00,
2013-01-26 04:06:00,11.3,0.1,30.06,WNW,292,3.1,3.1,60,0.00,,---,0.00,VWS V13.01,2013-01-26 09:06:00,
2013-01-26 04:11:00,11.3,0.1,30.06,WNW,292,2.7,2.7,60,0.00,,---,0.00,VWS V13.01,2013-01-26 09:11:00,
2013-01-26 04:16:00,11.1,0.0,30.06,WNW,292,2.2,2.2,60,0.00,,---,0.00,VWS V13.01,2013-01-26 09:16:00,
2013-01-26 04:21:00,11.1,0.0,30.06,WNW,292,0.0,0.0,60,0.00,,---,0.00,VWS V13.01,2013-01-26 09:21:00,
2013-01-26 04:26:00,11.1,0.0,30.06,WNW,292,0.0,0.0,60,0.00,,---,0.00,VWS V13.01,2013-01-26 09:26:00,
2013-01-26 04:31:00,11.1,0.0,30.06,WNW,292,0.0,0.0,60,0.00,,---,0.00,VWS V13.01,2013-01-26 09:31:00,
2013-01-26 04:36:00,10.9,-0.2,30.06,WNW,292,0.0,0.0,60,0.00,,---,0.00,VWS V13.01,2013-01-26 09:36:00,
2013-01-26 04:41:00,10.8,-0.4,30.06,WNW,292,0.0,0.0,60,0.00,,---,0.00,VWS V13.01,2013-01-26 09:41:00,
2013-01-26 04:46:00,10.8,-0.4,30.06,WNW,292,0.0,0.0,60,0.00,,---,0.00,VWS V13.01,2013-01-26 09:46:00,
2013-01-26 04:51:00,10.6,-0.6,30.06,WNW,292,0.0,0.0,60,0.00,,---,0.00,VWS V13.01,2013-01-26 09:51:00,
2013-01-26 04:56:00,10.4,-0.7,30.06,WNW,292,0.0,0.0,60,0.00,,---,0.00,VWS V13.01,2013-01-26 09:56:00,
2013-01-26 05:01:00,10.2,-0.9,30.06,WNW,292,0.0,0.0,60,0.00,,---,0.00,VWS V13.01,2013-01-26 10:01:00,
2013-01-26 05:06:00,10.2,-0.9,30.06,WNW,292,0.0,0.0,60,0.00,,---,0.00,VWS V13.01,2013-01-26 10:06:00,
2013-01-26 05:11:00,10.0,-1.1,30.06,WNW,292,0.0,0.0,60,0.00,,---,0.00,VWS V13.01,2013-01-26 10:11:00,
2013-01-26 05:16:00,10.0,-1.1,30.06,WNW,292,0.0,0.0,60,0.00,,---,0.00,VWS V13.01,2013-01-26 10:16:00,
2013-01-26 05:21:00,9.9,-1.2,30.06,WNW,292,0.0,0.0,60,0.00,,---,0.00,VWS V13.01,2013-01-26 10:21:00,
2013-01-26 05:26:00,9.9,-1.2,30.06,WNW,292,0.0,0.0,60,0.00,,---,0.00,VWS V13.01,2013-01-26 10:26:00,
2013-01-26 05:31:00,9.7,-1.4,30.06,WNW,292,0.0,0.0,60,0.00,,---,0.00,VWS V13.01,2013-01-26 10:31:00,
2013-01-26 05:36:00,9.5,-1.6,30.09,WNW,292,0.0,0.0,60,0.00,,---,0.00,VWS V13.01,2013-01-26 10:36:00,
2013-01-26 05:41:00,9.5,-1.6,30.09,WNW,292,0.0,0.0,60,0.00,,---,0.00,VWS V13.01,2013-01-26 10:41:00,
2013-01-26 05:46:00,9.3,-1.7,30.09,WNW,292,0.0,0.0,60,0.00,,---,0.00,VWS V13.01,2013-01-26 10:46:00,
2013-01-26 05:51:00,9.3,-1.7,30.09,WNW,292,0.0,0.0,60,0.00,,---,0.00,VWS V13.01,2013-01-26 10:51:00,
2013-01-26 05:56:00,9.1,-1.9,30.09,WNW,292,0.0,0.0,60,0.00,,---,0.00,VWS V13.01,2013-01-26 10:56:00,
2013-01-26 06:01:00,9.1,-1.9,30.09,WNW,292,0.0,0.0,60,0.00,,---,0.00,VWS V13.01,2013-01-26 11:01:00,
2013-01-26 06:06:00,9.0,-2.1,30.09,WNW,292,0.0,0.0,60,0.00,,---,0.00,VWS V13.01,2013-01-26 11:06:00,
2013-01-26 06:11:00,9.0,-2.1,30.09,WNW,292,0.0,0.0,60,0.00,,---,0.00,VWS V13.01,2013-01-26 11:11:00,
2013-01-26 06:16:00,9.0,-2.1,30.09,NNE,22,3.1,3.1,60,0.00,,---,0.00,VWS V13.01,2013-01-26 11:16:00,
2013-01-26 06:21:00,9.3,-1.7,30.09,NE,45,2.2,2.2,60,0.00,,---,0.00,VWS V13.01,2013-01-26 11:21:00,
2013-01-26 06:26:00,9.5,-1.6,30.09,NE,45,0.0,0.0,60,0.00,,---,0.00,VWS V13.01,2013-01-26 11:26:00,
2013-01-26 06:31:00,9.3,-1.7,30.09,ESE,112,0.0,0.0,60,0.00,,---,0.00,VWS V13.01,2013-01-26 11:31:00,
2013-01-26 06:36:00,9.3,-1.7,30.09,ESE,112,0.0,0.0,60,0.00,,---,0.00,VWS V13.01,2013-01-26 11:36:00,
2013-01-26 06:41:00,9.3,-1.7,30.09,ESE,112,0.0,0.0,60,0.00,,---,0.00,VWS V13.01,2013-01-26 11:41:00,
2013-01-26 06:46:00,9.1,-1.9,30.09,West,270,0.0,0.0,60,0.00,,---,0.00,VWS V13.01,2013-01-26 11:46:00,
2013-01-26 06:51:00,9.1,-1.9,30.09,WSW,248,0.0,0.0,60,0.00,,---,0.00,VWS V13.01,2013-01-26 11:51:00,
2013-01-26 06:56:00,9.0,-2.1,30.09,WSW,248,0.0,0.0,60,0.00,,---,0.00,VWS V13.01,2013-01-26 11:56:00,
2013-01-26 07:01:00,9.0,-2.1,30.09,West,270,0.0,0.0,60,0.00,,---,0.00,VWS V13.01,2013-01-26 12:01:00,
2013-01-26 07:06:00,8.8,-2.3,30.12,West,270,0.0,0.0,60,0.00,,---,0.00,VWS V13.01,2013-01-26 12:06:00,
2013-01-26 07:11:00,8.8,-2.3,30.12,West,270,0.0,1.8,60,0.00,,---,0.00,VWS V13.01,2013-01-26 12:11:00,
2013-01-26 07:16:00,8.8,-2.3,30.12,West,270,0.0,2.2,60,0.00,,---,0.00,VWS V13.01,2013-01-26 12:16:00,
2013-01-26 07:21:00,8.6,-2.4,30.12,West,270,0.0,0.0,60,0.00,,---,0.00,VWS V13.01,2013-01-26 12:21:00,
2013-01-26 07:26:00,8.6,-2.4,30.12,West,270,0.0,0.0,60,0.00,,---,0.00,VWS V13.01,2013-01-26 12:26:00,
2013-01-26 07:31:00,8.6,-2.4,30.12,West,270,0.0,0.0,60,0.00,,---,0.00,VWS V13.01,2013-01-26 12:31:00,
2013-01-26 07:36:00,8.8,-2.3,30.12,West,270,0.0,0.0,60,0.00,,---,0.00,VWS V13.01,2013-01-26 12:36:00,
2013-01-26 07:41:00,8.8,-2.3,30.12,West,270,0.0,0.0,60,0.00,,---,0.00,VWS V13.01,2013-01-26 12:41:00,
2013-01-26 07:46:00,9.1,-1.9,30.12,West,270,0.0,0.0,60,0.00,,---,0.00,VWS V13.01,2013-01-26 12:46:00,
2013-01-26 07:51:00,9.3,-1.7,30.12,West,270,0.0,0.0,60,0.00,,---,0.00,VWS V13.01,2013-01-26 12:51:00,
2013-01-26 07:56:00,9.5,-1.6,30.12,West,270,2.2,2.2,60,0.00,,---,0.00,VWS V13.01,2013-01-26 12:56:00,
2013-01-26 08:01:00,10.0,-1.1,30.12,NNW,338,0.0,0.0,60,0.00,,---,0.00,VWS V13.01,2013-01-26 13:01:00,
2013-01-26 08:06:00,10.6,-0.6,30.15,NNE,22,5.8,5.8,60,0.00,,---,0.00,VWS V13.01,2013-01-26 13:06:00,
2013-01-26 08:11:00,11.1,0.0,30.15,NNE,22,4.9,4.9,60,0.00,,---,0.00,VWS V13.01,2013-01-26 13:11:00,
2013-01-26 08:16:00,11.7,0.5,30.15,North,0,2.2,2.2,60,0.00,,---,0.00,VWS V13.01,2013-01-26 13:16:00,
2013-01-26 08:21:00,12.0,0.8,30.15,NNE,22,0.0,0.0,60,0.00,,---,0.00,VWS V13.01,2013-01-26 13:21:00,
2013-01-26 08:26:00,12.2,1.0,30.15,NNE,22,4.5,4.5,60,0.00,,---,0.00,VWS V13.01,2013-01-26 13:26:00,
2013-01-26 08:31:00,12.7,1.5,30.15,NNE,22,4.5,4.9,60,0.00,,---,0.00,VWS V13.01,2013-01-26 13:31:00,
2013-01-26 08:36:00,13.1,1.8,30.15,NNE,22,5.4,5.4,60,0.00,,---,0.00,VWS V13.01,2013-01-26 13:36:00,
2013-01-26 08:41:00,13.6,2.3,30.15,NE,45,6.3,6.3,60,0.00,,---,0.00,VWS V13.01,2013-01-26 13:41:00,
2013-01-26 08:46:00,13.8,2.5,30.15,NNE,22,4.0,4.0,60,0.00,,---,0.00,VWS V13.01,2013-01-26 13:46:00,
2013-01-26 08:51:00,14.4,3.4,30.15,NE,45,4.0,4.9,61,0.00,,---,0.00,VWS V13.01,2013-01-26 13:51:00,
2013-01-26 08:56:00,14.7,3.7,30.15,NE,45,3.1,3.1,61,0.00,,---,0.00,VWS V13.01,2013-01-26 13:56:00,
2013-01-26 09:01:00,15.1,3.7,30.15,NNE,22,5.4,5.4,60,0.00,,---,0.00,VWS V13.01,2013-01-26 14:01:00,
2013-01-26 09:06:00,15.3,3.9,30.15,NE,45,4.9,4.9,60,0.00,,---,0.00,VWS V13.01,2013-01-26 14:06:00,
2013-01-26 09:11:00,15.8,4.0,30.15,NNE,22,5.4,5.4,59,0.00,,---,0.00,VWS V13.01,2013-01-26 14:11:00,
2013-01-26 09:16:00,16.2,4.0,30.15,NE,45,5.4,5.4,58,0.00,,---,0.00,VWS V13.01,2013-01-26 14:16:00,
2013-01-26 09:21:00,16.3,3.4,30.15,ENE,68,4.9,5.8,56,0.00,,---,0.00,VWS V13.01,2013-01-26 14:21:00,
2013-01-26 09:26:00,16.7,3.7,30.15,ENE,68,5.8,5.8,56,0.00,,---,0.00,VWS V13.01,2013-01-26 14:26:00,
2013-01-26 09:31:00,17.1,3.7,30.15,NE,45,4.9,4.9,55,0.00,,---,0.00,VWS V13.01,2013-01-26 14:31:00,
2013-01-26 09:36:00,17.2,3.5,30.15,NNE,22,6.7,6.7,54,0.00,,---,0.00,VWS V13.01,2013-01-26 14:36:00,
2013-01-26 09:41:00,17.4,3.6,30.15,NNW,338,4.9,4.9,54,0.00,,---,0.00,VWS V13.01,2013-01-26 14:41:00,
2013-01-26 09:46:00,17.8,4.0,30.15,NE,45,3.1,4.0,54,0.00,,---,0.00,VWS V13.01,2013-01-26 14:46:00,
2013-01-26 09:51:00,18.3,4.5,30.15,NNE,22,5.4,5.4,54,0.00,,---,0.00,VWS V13.01,2013-01-26 14:51:00,
2013-01-26 09:56:00,18.5,4.2,30.15,NNE,22,8.1,8.1,53,0.00,,---,0.00,VWS V13.01,2013-01-26 14:56:00,
2013-01-26 10:01:00,18.3,3.2,30.15,NNE,22,6.3,8.1,51,0.00,,---,0.00,VWS V13.01,2013-01-26 15:01:00,
2013-01-26 10:06:00,18.5,3.4,30.18,NNE,22,12.5,12.5,51,0.00,,---,0.00,VWS V13.01,2013-01-26 15:06:00,
2013-01-26 10:11:00,18.5,3.0,30.18,NNE,22,6.7,7.2,50,0.00,,---,0.00,VWS V13.01,2013-01-26 15:11:00,
2013-01-26 10:16:00,18.7,3.1,30.18,NE,45,8.5,8.5,50,0.00,,---,0.00,VWS V13.01,2013-01-26 15:16:00,
2013-01-26 10:21:00,18.7,3.1,30.15,NNW,338,4.9,6.3,50,0.00,,---,0.00,VWS V13.01,2013-01-26 15:21:00,
2013-01-26 10:26:00,19.0,3.5,30.15,North,0,6.3,7.2,50,0.00,,---,0.00,VWS V13.01,2013-01-26 15:26:00,
2013-01-26 10:31:00,19.2,3.6,30.15,NNE,22,4.0,7.6,50,0.00,,---,0.00,VWS V13.01,2013-01-26 15:31:00,
2013-01-26 10:36:00,19.4,3.4,30.15,NE,45,5.4,5.4,49,0.00,,---,0.00,VWS V13.01,2013-01-26 15:36:00,
2013-01-26 10:41:00,19.6,3.1,30.15,North,0,8.1,8.1,48,0.00,,---,0.00,VWS V13.01,2013-01-26 15:41:00,
2013-01-26 10:46:00,19.8,3.3,30.15,NNW,338,5.4,5.4,48,0.00,,---,0.00,VWS V13.01,2013-01-26 15:46:00,
2013-01-26 10:51:00,20.1,3.6,30.15,ENE,68,7.6,7.6,48,0.00,,---,0.00,VWS V13.01,2013-01-26 15:51:00,
2013-01-26 10:56:00,20.3,3.8,30.15,NE,45,4.0,11.2,48,0.00,,---,0.00,VWS V13.01,2013-01-26 15:56:00,
2013-01-26 11:01:00,20.3,3.8,30.15,NNE,22,8.5,8.5,48,0.00,,---,0.00,VWS V13.01,2013-01-26 16:01:00,
2013-01-26 11:06:00,20.5,3.9,30.15,NNW,338,2.7,2.7,48,0.00,,---,0.00,VWS V13.01,2013-01-26 16:06:00,
2013-01-26 11:11:00,20.8,4.7,30.15,North,0,5.4,6.3,49,0.00,,---,0.00,VWS V13.01,2013-01-26 16:11:00,
2013-01-26 11:16:00,21.2,4.6,30.15,NNE,22,7.2,7.2,48,0.00,,---,0.00,VWS V13.01,2013-01-26 16:16:00,
2013-01-26 11:21:00,21.2,4.6,30.15,NE,45,5.4,8.1,48,0.00,,---,0.00,VWS V13.01,2013-01-26 16:21:00,
2013-01-26 11:26:00,21.4,4.3,30.15,ENE,68,2.7,2.7,47,0.00,,---,0.00,VWS V13.01,2013-01-26 16:26:00,
2013-01-26 11:31:00,21.7,4.6,30.15,NNE,22,6.3,7.6,47,0.00,,---,0.00,VWS V13.01,2013-01-26 16:31:00,
2013-01-26 11:36:00,21.9,4.8,30.15,NE,45,4.5,6.3,47,0.00,,---,0.00,VWS V13.01,2013-01-26 16:36:00,
2013-01-26 11:41:00,22.1,5.0,30.15,NNE,22,6.3,6.3,47,0.00,,---,0.00,VWS V13.01,2013-01-26 16:41:00,
2013-01-26 11:46:00,22.1,4.5,30.15,ENE,68,5.8,5.8,46,0.00,,---,0.00,VWS V13.01,2013-01-26 16:46:00,
2013-01-26 11:51:00,22.5,5.3,30.12,NE,45,7.2,7.2,47,0.00,,---,0.00,VWS V13.01,2013-01-26 16:51:00,
2013-01-26 11:56:00,22.8,5.2,30.12,NE,45,2.7,4.0,46,0.00,,---,0.00,VWS V13.01,2013-01-26 16:56:00,
2013-01-26 12:01:00,23.2,5.5,30.12,ENE,68,4.0,4.0,46,0.00,,---,0.00,VWS V13.01,2013-01-26 17:01:00,
2013-01-26 12:06:00,23.4,5.2,30.12,ENE,68,7.6,7.6,45,0.00,,---,0.00,VWS V13.01,2013-01-26 17:06:00,
2013-01-26 12:11:00,23.4,5.2,30.12,NNE,22,8.5,8.5,45,0.00,,---,0.00,VWS V13.01,2013-01-26 17:11:00,
2013-01-26 12:16:00,23.5,5.3,30.12,ENE,68,4.9,4.9,45,0.00,,---,0.00,VWS V13.01,2013-01-26 17:16:00,
2013-01-26 12:21:00,23.9,5.7,30.12,NE,45,9.4,9.4,45,0.00,,---,0.00,VWS V13.01,2013-01-26 17:21:00,
2013-01-26 12:26:00,24.1,5.8,30.12,ENE,68,5.8,5.8,45,0.00,,---,0.00,VWS V13.01,2013-01-26 17:26:00,
2013-01-26 12:31:00,24.3,6.0,30.12,NNW,338,6.7,6.7,45,0.00,,---,0.00,VWS V13.01,2013-01-26 17:31:00,
2013-01-26 12:36:00,24.4,5.7,30.12,NNE,22,8.5,8.5,44,0.00,,---,0.00,VWS V13.01,2013-01-26 17:36:00,
2013-01-26 12:41:00,24.4,5.7,30.12,NNW,338,8.5,8.5,44,0.00,,---,0.00,VWS V13.01,2013-01-26 17:41:00,
2013-01-26 12:46:00,24.3,5.5,30.12,ENE,68,8.1,8.1,44,0.00,,---,0.00,VWS V13.01,2013-01-26 17:46:00,
2013-01-26 12:51:00,24.6,5.8,30.12,NNE,22,4.9,4.9,44,0.00,,---,0.00,VWS V13.01,2013-01-26 17:51:00,
2013-01-26 12:56:00,25.0,5.7,30.12,NNE,22,7.6,7.6,43,0.00,,---,0.00,VWS V13.01,2013-01-26 17:56:00,
2013-01-26 13:01:00,25.0,5.7,30.12,NE,45,8.5,8.5,43,0.00,,---,0.00,VWS V13.01,2013-01-26 18:01:00,
2013-01-26 13:06:00,25.2,5.8,30.12,NNE,22,9.8,9.8,43,0.00,,---,0.00,VWS V13.01,2013-01-26 18:06:00,
2013-01-26 13:11:00,25.2,5.8,30.12,NE,45,11.6,11.6,43,0.00,,---,0.00,VWS V13.01,2013-01-26 18:11:00,
2013-01-26 13:16:00,25.3,6.0,30.12,NW,315,4.5,5.8,43,0.00,,---,0.00,VWS V13.01,2013-01-26 18:16:00,
2013-01-26 13:21:00,25.5,6.2,30.12,NNE,22,8.1,8.1,43,0.00,,---,0.00,VWS V13.01,2013-01-26 18:21:00,
2013-01-26 13:26:00,25.7,6.3,30.12,NW,315,5.4,6.3,43,0.00,,---,0.00,VWS V13.01,2013-01-26 18:26:00,
2013-01-26 13:31:00,26.1,6.6,30.12,North,0,6.7,6.7,43,0.00,,---,0.00,VWS V13.01,2013-01-26 18:31:00,
2013-01-26 13:36:00,26.1,6.1,30.12,NE,45,4.9,12.1,42,0.00,,---,0.00,VWS V13.01,2013-01-26 18:36:00,
2013-01-26 13:41:00,26.1,6.1,30.12,ENE,68,6.7,12.1,42,0.00,,---,0.00,VWS V13.01,2013-01-26 18:41:00,
2013-01-26 13:46:00,25.9,6.0,30.12,North,0,8.1,8.1,42,0.00,,---,0.00,VWS V13.01,2013-01-26 18:46:00,
2013-01-26 13:51:00,25.9,6.0,30.09,NNE,22,9.4,13.0,42,0.00,,---,0.00,VWS V13.01,2013-01-26 18:51:00,
2013-01-26 13:56:00,25.9,6.0,30.09,NW,315,5.8,7.6,42,0.00,,---,0.00,VWS V13.01,2013-01-26 18:56:00,
2013-01-26 14:01:00,25.9,6.0,30.09,ENE,68,6.3,9.4,42,0.00,,---,0.00,VWS V13.01,2013-01-26 19:01:00,
2013-01-26 14:06:00,25.9,6.0,30.12,NNE,22,6.7,9.4,42,0.00,,---,0.00,VWS V13.01,2013-01-26 19:06:00,
2013-01-26 14:11:00,25.7,5.8,30.12,NNE,22,7.2,7.6,42,0.00,,---,0.00,VWS V13.01,2013-01-26 19:11:00,
2013-01-26 14:16:00,25.9,6.0,30.12,NE,45,7.6,7.6,42,0.00,,---,0.00,VWS V13.01,2013-01-26 19:16:00,
2013-01-26 14:21:00,25.9,6.0,30.12,NNW,338,4.5,5.8,42,0.00,,---,0.00,VWS V13.01,2013-01-26 19:21:00,
2013-01-26 14:26:00,25.7,5.8,30.12,NW,315,12.5,12.5,42,0.00,,---,0.00,VWS V13.01,2013-01-26 19:26:00,
2013-01-26 14:31:00,25.5,5.6,30.12,NNW,338,6.3,8.1,42,0.00,,---,0.00,VWS V13.01,2013-01-26 19:31:00,
2013-01-26 14:36:00,25.3,5.5,30.12,WNW,292,11.6,12.1,42,0.00,,---,0.00,VWS V13.01,2013-01-26 19:36:00,
2013-01-26 14:41:00,25.3,5.5,30.12,ENE,68,7.2,8.5,42,0.00,,---,0.00,VWS V13.01,2013-01-26 19:41:00,
2013-01-26 14:46:00,25.3,5.5,30.12,ENE,68,5.8,9.4,42,0.00,,---,0.00,VWS V13.01,2013-01-26 19:46:00,
2013-01-26 14:51:00,24.8,5.0,30.15,NNW,338,8.5,19.7,42,0.00,,---,0.00,VWS V13.01,2013-01-26 19:51:00,
2013-01-26 14:56:00,24.8,5.0,30.15,NNE,22,8.1,8.1,42,0.00,,---,0.00,VWS V13.01,2013-01-26 19:56:00,
2013-01-26 15:01:00,24.8,5.0,30.15,NNE,22,9.4,9.4,42,0.00,,---,0.00,VWS V13.01,2013-01-26 20:01:00,
2013-01-26 15:05:00,24.6,4.8,30.15,NE,45,10.7,10.7,42,0.00,,---,0.00,VWS V13.01,2013-01-26 20:05:00,
2013-01-26 15:11:00,24.4,4.7,30.15,WNW,292,6.3,6.3,42,0.00,,---,0.00,VWS V13.01,2013-01-26 20:11:00,
2013-01-26 15:16:00,24.4,4.7,30.15,NW,315,4.5,4.5,42,0.00,,---,0.00,VWS V13.01,2013-01-26 20:16:00,
2013-01-26 15:21:00,24.1,4.3,30.15,NNW,338,6.3,8.5,42,0.00,,---,0.00,VWS V13.01,2013-01-26 20:21:00,
2013-01-26 15:26:00,24.3,4.5,30.15,NNW,338,7.6,10.7,42,0.00,,---,0.00,VWS V13.01,2013-01-26 20:26:00,
2013-01-26 15:31:00,24.3,4.5,30.15,NNE,22,6.3,6.7,42,0.00,,---,0.00,VWS V13.01,2013-01-26 20:31:00,
2013-01-26 15:36:00,23.9,4.2,30.15,NNW,338,7.2,15.2,42,0.00,,---,0.00,VWS V13.01,2013-01-26 20:36:00,
2013-01-26 15:41:00,23.9,4.2,30.15,NNE,22,5.8,7.6,42,0.00,,---,0.00,VWS V13.01,2013-01-26 20:41:00,
2013-01-26 15:46:00,23.7,4.0,30.15,NNW,338,9.4,9.4,42,0.00,,---,0.00,VWS V13.01,2013-01-26 20:46:00,
2013-01-26 15:50:00,23.5,3.8,30.18,NNW,338,5.4,6.7,42,0.00,,---,0.00,VWS V13.01,2013-01-26 20:50:00,
2013-01-26 15:55:00,23.4,3.7,30.18,NNE,22,6.7,6.7,42,0.00,,---,0.00,VWS V13.01,2013-01-26 20:55:00,
2013-01-26 16:00:00,23.2,3.5,30.18,NE,45,7.6,7.6,42,0.00,,---,0.00,VWS V13.01,2013-01-26 21:00:00,
2013-01-26 16:05:00,23.0,3.3,30.18,NW,315,9.0,9.0,42,0.00,,---,0.00,VWS V13.01,2013-01-26 21:05:00,
2013-01-26 16:10:00,22.8,3.2,30.18,NNE,22,5.8,5.8,42,0.00,,---,0.00,VWS V13.01,2013-01-26 21:10:00,
2013-01-26 16:15:00,22.6,3.0,30.18,NW,315,5.4,11.6,42,0.00,,---,0.00,VWS V13.01,2013-01-26 21:15:00,
2013-01-26 16:20:00,22.5,2.8,30.18,NNE,22,5.4,8.1,42,0.00,,---,0.00,VWS V13.01,2013-01-26 21:20:00,
2013-01-26 16:25:00,22.3,2.7,30.18,NE,45,6.3,6.3,42,0.00,,---,0.00,VWS V13.01,2013-01-26 21:25:00,
2013-01-26 16:30:00,21.9,2.4,30.18,NNW,338,3.1,7.6,42,0.00,,---,0.00,VWS V13.01,2013-01-26 21:30:00,
2013-01-26 16:35:00,21.9,2.4,30.18,NNE,22,4.9,9.8,42,0.00,,---,0.00,VWS V13.01,2013-01-26 21:35:00,
2013-01-26 16:40:00,21.6,2.0,30.18,NNW,338,7.2,7.2,42,0.00,,---,0.00,VWS V13.01,2013-01-26 21:40:00,
2013-01-26 16:45:00,21.4,1.9,30.18,NNE,22,4.5,6.3,42,0.00,,---,0.00,VWS V13.01,2013-01-26 21:45:00,
2013-01-26 16:50:00,21.2,2.2,30.18,NNE,22,5.4,5.4,43,0.00,,---,0.00,VWS V13.01,2013-01-26 21:50:00,
2013-01-26 16:55:00,21.2,2.2,30.18,North,0,5.4,5.4,43,0.00,,---,0.00,VWS V13.01,2013-01-26 21:55:00,
2013-01-26 17:00:00,20.8,1.9,30.18,NNE,22,4.0,5.4,43,0.00,,---,0.00,VWS V13.01,2013-01-26 22:00:00,
2013-01-26 17:05:00,20.8,1.9,30.21,North,0,6.3,9.8,43,0.00,,---,0.00,VWS V13.01,2013-01-26 22:05:00,
2013-01-26 17:10:00,20.7,1.7,30.21,NNW,338,4.9,6.3,43,0.00,,---,0.00,VWS V13.01,2013-01-26 22:10:00,
2013-01-26 17:15:00,20.7,1.7,30.21,WNW,292,3.1,5.4,43,0.00,,---,0.00,VWS V13.01,2013-01-26 22:15:00,
2013-01-26 17:20:00,20.5,1.5,30.21,NNW,338,3.1,5.4,43,0.00,,---,0.00,VWS V13.01,2013-01-26 22:20:00,
2013-01-26 17:25:00,20.3,1.4,30.21,NNE,22,3.1,4.5,43,0.00,,---,0.00,VWS V13.01,2013-01-26 22:25:00,
2013-01-26 17:30:00,20.3,1.4,30.21,NE,45,5.4,5.4,43,0.00,,---,0.00,VWS V13.01,2013-01-26 22:30:00,
2013-01-26 17:35:00,20.5,1.5,30.21,NW,315,1.8,5.8,43,0.00,,---,0.00,VWS V13.01,2013-01-26 22:35:00,
2013-01-26 17:40:00,20.5,1.5,30.21,NNW,338,6.3,6.3,43,0.00,,---,0.00,VWS V13.01,2013-01-26 22:40:00,
2013-01-26 17:45:00,20.7,1.7,30.21,NNE,22,2.2,4.0,43,0.00,,---,0.00,VWS V13.01,2013-01-26 22:45:00,
2013-01-26 17:50:00,20.5,1.5,30.21,NNW,338,4.9,7.2,43,0.00,,---,0.00,VWS V13.01,2013-01-26 22:50:00,
2013-01-26 17:55:00,20.5,1.5,30.21,NNE,22,2.7,3.1,43,0.00,,---,0.00,VWS V13.01,2013-01-26 22:55:00,
2013-01-26 18:00:00,20.3,1.4,30.21,North,0,5.8,5.8,43,0.00,,---,0.00,VWS V13.01,2013-01-26 23:00:00,
2013-01-26 18:05:00,20.3,1.4,30.24,NNE,22,4.9,5.4,43,0.00,,---,0.00,VWS V13.01,2013-01-26 23:05:00,
2013-01-26 18:10:00,20.1,1.2,30.24,North,0,3.1,4.0,43,0.00,,---,0.00,VWS V13.01,2013-01-26 23:10:00,
2013-01-26 18:15:00,19.9,1.1,30.24,NW,315,2.7,3.1,43,0.00,,---,0.00,VWS V13.01,2013-01-26 23:15:00,
2013-01-26 18:20:00,19.8,0.9,30.24,NW,315,0.0,0.0,43,0.00,,---,0.00,VWS V13.01,2013-01-26 23:20:00,
2013-01-26 18:25:00,19.6,0.7,30.24,NNW,338,0.0,1.8,43,0.00,,---,0.00,VWS V13.01,2013-01-26 23:25:00,
2013-01-26 18:30:00,19.6,0.7,30.24,NNW,338,3.1,5.4,43,0.00,,---,0.00,VWS V13.01,2013-01-26 23:30:00,
2013-01-26 18:35:00,19.4,1.1,30.24,NE,45,7.6,7.6,44,0.00,,---,0.00,VWS V13.01,2013-01-26 23:35:00,
2013-01-26 18:40:00,19.4,1.1,30.24,NW,315,4.0,4.0,44,0.00,,---,0.00,VWS V13.01,2013-01-26 23:40:00,
2013-01-26 18:45:00,19.6,0.7,30.24,NW,315,4.9,4.9,43,0.00,,---,0.00,VWS V13.01,2013-01-26 23:45:00,
2013-01-26 18:50:00,19.6,0.7,30.24,NNW,338,2.7,4.0,43,0.00,,---,0.00,VWS V13.01,2013-01-26 23:50:00,
2013-01-26 18:55:00,19.8,0.9,30.24,North,0,4.9,4.9,43,0.00,,---,0.00,VWS V13.01,2013-01-26 23:55:00,
2013-01-26 19:00:00,19.8,0.9,30.24,NNW,338,4.9,4.9,43,0.00,,---,0.00,VWS V13.01,2013-01-27 00:00:00,
2013-01-26 19:05:00,19.8,0.9,30.24,NNW,338,2.7,3.1,43,0.00,,---,0.00,VWS V13.01,2013-01-27 00:05:00,
2013-01-26 19:10:00,19.6,0.7,30.24,WNW,292,6.7,6.7,43,0.00,,---,0.00,VWS V13.01,2013-01-27 00:10:00,